Home   Weather   Drammen   Past weeks

Flag for Norway Past Weather in Drammen, Norway — Yesterday and Last 2 Weeks

Now
46 °F

Partly sunny.


Feels Like: 38 °F
Forecast: 21 / 31 °F
Wind: 23 mph from South

Location: Statfjord B

Current Time: Dec 6, 2016 at 3:24:23 pm

Latest Report: Dec 6, 2016 at 2:50 pm


Visibility: N/A

Pressure: 30.21 "Hg

Humidity: 87%

Dew Point: 43 °F

Location of DrammenLocation

Past Weather in Drammen — Graph

°F

Drammen Temperature Yesterday

Maximum temperature yesterday: 48 °F (at 12:20 am)
Minimum temperature yesterday: 45 °F (at 2:20 pm)
Average temperature yesterday: 46 °F

High & Low Weather Summary for the Past Weeks

 TemperatureHumidityPressure
High50 °F (Nov 24, 8:50 pm)100% (Nov 24, 3:50 pm)30.51 "Hg (Nov 24, 3:50 pm)
Low39 °F (Dec 1, 6:20 pm)42% (Nov 27, 6:50 am)29.62 "Hg (Nov 21, 1:20 pm)
Average46 °F76%30.08 "Hg
* Reported Nov 21 1:20 pm — Dec 6 1:50 pm, Drammen, Weather by CustomWeather, © 2016

Note: Actual official high and low records may vary slightly from our data, if they occured in-between our weather recording intervals... More about our weather records

Advertising

Drammen Weather History for the Previous 24 Hours

Scroll right to see more
 ConditionsComfort  
Time TempWeatherWind HumidityBarometerVisibility
1:50 pm
Tue, Dec 6
46 °FPartly sunny.26 mph87%30.24 "HgN/A
1:20 pm46 °FPartly sunny.28 mph82%30.24 "HgN/A
12:50 pm46 °FPartly sunny.25 mph76%30.24 "HgN/A
12:20 pm48 °FPartly sunny.23 mph76%30.24 "HgN/A
11:50 am46 °FPartly sunny.23 mph82%30.27 "HgN/A
11:20 am46 °FOvercast.22 mph82%30.27 "HgN/A
10:50 am46 °FOvercast.20 mph76%30.27 "HgN/A
10:20 am46 °FOvercast.18 mph76%30.27 "HgN/A
9:50 am46 °FOvercast.17 mph76%30.27 "HgN/A
9:20 am46 °FPartly sunny.16 mph76%30.27 "HgN/A
8:50 am46 °FOvercast.16 mph71%30.27 "HgN/A
8:20 am46 °FPassing clouds.15 mph71%30.27 "HgN/A
7:50 am46 °FPassing clouds.15 mph71%30.30 "HgN/A
7:20 am46 °FPassing clouds.13 mph71%30.30 "HgN/A
6:50 am46 °FOvercast.12 mph66%30.30 "HgN/A
5:50 am46 °FOvercast.10 mph66%30.30 "HgN/A
5:20 am45 °FPassing clouds.9 mph71%30.30 "HgN/A
4:50 am45 °FPassing clouds.9 mph71%30.30 "HgN/A
4:20 am45 °FPassing clouds.7 mph71%30.30 "HgN/A
3:50 am45 °FPassing clouds.9 mph71%30.30 "HgN/A
3:20 am45 °FPassing clouds.6 mph66%30.30 "HgN/A
2:50 am45 °FPassing clouds.7 mph66%30.30 "HgN/A
2:20 am45 °FPassing clouds.8 mph66%30.30 "HgN/A
1:50 am45 °FPassing clouds.8 mph66%30.30 "HgN/A
1:20 am45 °FPassing clouds.8 mph66%30.30 "HgN/A
12:50 am45 °FPassing clouds.7 mph71%30.30 "HgN/A
12:20 am45 °FPassing clouds.7 mph66%30.30 "HgN/A
11:50 pm
Mon, Dec 5
45 °FQuite cool.7 mph66%30.30 "HgN/A
11:20 pm45 °FPassing clouds.6 mph66%30.30 "HgN/A
10:50 pm45 °FPassing clouds.7 mph66%30.30 "HgN/A
10:20 pm45 °FPassing clouds.7 mph66%30.30 "HgN/A
9:50 pm45 °FPassing clouds.7 mph66%30.30 "HgN/A
9:20 pm45 °FPassing clouds.6 mph66%30.30 "HgN/A
8:50 pm45 °FPassing clouds.7 mph66%30.30 "HgN/A
8:20 pm45 °FPassing clouds.9 mph66%30.27 "HgN/A
7:50 pm45 °FPassing clouds.10 mph71%30.27 "HgN/A
7:20 pm45 °FPassing clouds.9 mph71%30.27 "HgN/A
6:50 pm45 °FPassing clouds.9 mph76%30.27 "HgN/A
6:20 pm45 °FPassing clouds.7 mph71%30.27 "HgN/A
5:50 pm45 °FPassing clouds.9 mph76%30.27 "HgN/A
5:20 pm46 °FPassing clouds.10 mph71%30.24 "HgN/A
4:50 pm45 °FOvercast.9 mph76%30.24 "HgN/A
4:20 pm45 °FPassing clouds.10 mph81%30.24 "HgN/A
3:50 pm45 °FPassing clouds.12 mph87%30.24 "HgN/A
3:20 pm45 °FPartly cloudy.13 mph87%30.24 "HgN/A
Weather by CustomWeather, © 2016

See weather overviewHow to use our weather pages